Regional Weather Roundup
Issued by NWS Charleston, SC

Current Version | Previous Version | Graphics & Text | Print | Product List | Glossary On
Versions: 1 2 3 4 5 6 7 8 9 10 11 12 13 14 15 16 17 18 19 20 21 22 23 24 25 26 27 28 29 30 31 32 33 34 35 36 37 38 39 40 41 42 43 44 45 46 47 48 49 50
000
ASUS42 KCHS 250910
RWRCHS
REGIONAL WEATHER ROUNDUP
NATIONAL WEATHER SERVICE CHARLESTON SC
500 AM EDT FRI JUL 25 2014

NOTE: "FAIR" INDICATES FEW OR NO CLOUDS BELOW 12,000 FEET WITH NO
SIGNIFICANT WEATHER AND/OR OBSTRUCTIONS TO VISIBILITY.

NOT ALL STATIONS ARE QUALITY CONTROLLED BY THE NATIONAL
WEATHER SERVICE. USE DATA WITH CAUTION...ESPECIALLY
DEWPOINT OBSERVATIONS.

SCZ027-030-031-034>040-042>050-251000-
...SOUTH CAROLINA...

CITY           SKY/WX    TMP DP  RH WIND       PRES   REMARKS
N CHARLESTON   PTCLDY    80  73  79 SW8       29.96R
WATERFRONT PRK   N/A     81 N/A N/A W6          N/A
FORT JOHNSON   NOT AVBL
MOUNT PLEASANT FAIR      81  75  83 CALM      29.96R
JOHNS ISLAND   PTSUNNY   81  70  69 CALM      29.97R
PINOPOLIS        N/A     81  73  78 W12       29.88R
MONCKS CORNER    N/A     79  75  89 CALM      29.96R
SUMMERVILLE    NOT AVBL
BEAUFORT MCAS  CLEAR     79  72  79 NW8       29.97R
BEAUFORT ARPT  FAIR      79  73  83 SW5       29.96S
HILTON HEAD IS CLEAR     79  73  83 SW7       29.99R
GEORGETOWN     NOT AVBL
WALTERBORO     SUNNY     77  77 100 W5        29.97R
ORANGEBURG     PTCLDY    77  71  82 W3        29.96R
BARNWELL       FAIR      75  72  88 W3        29.97S
AIKEN          FAIR      73  73 100 CALM      30.00S
MANNING        PTSUNNY   77 N/A N/A CALM      29.96S
KINGSTREE      NOT AVBL
COLUMBIA       PTCLDY    77  71  82 S3        29.95S
SUMTER         PTCLDY    74  73  97 E2        29.96R
FLORENCE       MOCLDY    73  71  93 E3        29.96R
MYRTLE BEACH   CLOUDY    75  72  88 CALM      29.96S
N MYRTLE BEACH LGT RAIN  75  72  90 SW5       29.96R

$$

GAZ063-065-086>088-099>101-113>116-118-119-134-136>141-150-251000-
...GEORGIA...

CITY           SKY/WX    TMP DP  RH WIND       PRES   REMARKS
SAVANNAH ARPT  CLEAR     77  72  84 W7        29.99R
HUNTER AAF     CLEAR     77  73  89 SW6       29.97R
FORT STEWART   CLEAR     76  73  89 W5        29.97S
STATESBORO     NOT AVBL
SYLVANIA       MOSUNNY   76  75  96 CALM      29.99R
CLAXTON        FAIR      77  77 100 CALM      29.99R
THOMSON        PTCLDY    74  74 100 CALM      30.01S
AUGUSTA-BUSH   CLEAR     72  71  97 SE3       29.96R FOG
AUGUSTA-DANIEL CLEAR     77  72  84 CALM      29.98R
SWAINSBORO     FAIR      79  77  94 CALM      29.98F
VIDALIA          N/A     77  73  88 SW6       29.99S
ALMA           CLEAR     74  72  93 SW3       30.00S
WAYCROSS       CLEAR     78  77  97 W3        30.01R
JESUP          NOT AVBL
BRUNSWICK      CLEAR     77  72  83 CALM      30.01R
SAINT SIMONS   CLEAR     78  74  87 SW7       30.00S

$$

SCZ027-028-034-036>038-045-046-048>050-GAZ119-141-251000-
...LAKE AND SUPPLEMENTAL COASTAL OBSERVATIONS...

STATION/POSITION TIME  TEMP    WIND        PRES    WAVE   SWELL
                       AIR SEA DIR/SP/G            HT/PER HT/PER/DIR
                 (UTC) (F)     (DEG/KT/KT) (MB)    (FT/S) (FT/S/D)
UPR LAKE MARION  NOT AVBL
WINYAH BAY       0800   76     330/  2     1013.0S
LAKE MURRAY      0800   76      40/  2/  3 1013.9S
ACE BASIN NERRS  0800   80     260/  2     1014.0S
FORT PULASKI     0900   79     250/  7/ 10 1015.4R
SAPELO ISLAND    0800   79     230/  7     1016.0S

$$

ANZ835-935-AMZ111-154-330-350-352-354-374-450-454-472-251000-
...C-MAN AND BUOY OBSERVATIONS...

STATION/POSITION TIME  TEMP    WIND        PRES    WAVE   SWELL
                       AIR SEA DIR/SP/G            HT/PER HT/PER/DIR
                 (UTC) (F)     (DEG/KT/KT) (MB)    (FT/S) (FT/S/D)
FOLLY BEACH CMAN 0800   81     240/  5/  8 1014.6S
BUOY 41004       0900   83 83  230/ 14/ 17 1013.5R   5/ 5   2/11
BUOY 41008       0900   82 84  270/ 17/ 19 1015.2S   3/ 4
5E ST. MARYS GA  0900      85                N/A     2/ 5
FRYING PAN BUOY  NOT AVBL
BUOY 41025       0900          VRB 16/ 17  1013.0R   3/ 8   2/130/ 8
CAPE LOOKOUT NC  0800   74     260/  4/  4 1013.3R
BUOY 41002       0755   82 82  240/ 19/ 23 1016.5    5/ 6   2/270/13
BUOY 41010       0900   83 83  210/ 14/ 16 1017.6R   3/ 4   2/130/ 7
BUOY 41012       NOT AVBL
ST AUGUSTINE FL  0900   77     250/  5/  6 1017.1R
CAPERS NEARSHORE 0800   83     260/ 14/ 16   N/A
FRIPP NEARSHORE  NOT AVBL


$$


USA.gov is the U.S. government's official web portal to all federal, state and local government web resources and services.